Header for Extended Forecast Station List Page

Search by: ID | Name | Date | Parm | Value | Avg | % Avg
Sort by: ID | Name | Date | Parm | Value | Avg | % Avg

Enter search or view all records.

Click on id for station plot
#IDNameDateParmValueAvg% Avg
0BULO3BULLY CREEK-BULLY CREEK DAM12-05-2022INFLOW (KAF)215414
1RIDI1WILLOW CREEK-RIRIE DAM12-05-2022INFLOW (KAF)61543
2LWRI1LITTLE WOOD-LITTLE WOOD DAM12-05-2022INFLOW (KAF)91752
3HWRI1BIG LOST-AT HOWELL RANCH NEAR CHILLY12-05-2022DISCHARGE (KAF)171891
4DEDI1DEADWOOD-NEAR LOWMAN12-05-2022INFLOW (KAF)132068
5BERO3MALHEUR-AGENCY VALLEY DAM12-05-2022INFLOW (KAF)172664
6ARDW1ENTIAT-NEAR ARDENVOIR12-05-2022DISCHARGE (KAF)142751
7MAGI1BIG WOOD-MAGIC DAM12-05-2022INFLOW (KAF)273676
8HOTI1BRUNEAU-NEAR HOT SPRINGS12-05-2022DISCHARGE (KAF)153839
9MACI1BIG LOST-MACKAY RESERVOIR NEAR MACKAY12-05-2022INFLOW (KAF)303878
10MYKO3MCKAY CREEK-NEAR PILOT ROCK12-05-2022DISCHARGE (KAF)4138110
11BUDW1BUMPING-BUMPING LAKE DAM12-05-2022INFLOW (KAF)194047
12HALI1BIG WOOD-AT HAILEY12-05-2022DISCHARGE (KAF)304076
13RCCM8ROCK CREEK-NEAR CLINTON12-05-2022DISCHARGE (KAF)4847102
14WRMO3MALHEUR-WARM SPRINGS DAM12-05-2022INFLOW (KAF)244750
15DLGM8CLARK FORK-AT DEER LODGE12-05-2022DISCHARGE (KAF)435283
16KADW1KACHESS-KACHESS DAM12-05-2022INFLOW (KAF)325262
17KEDW1YAKIMA-KEECHELUS LAKE12-05-2022INFLOW (KAF)345363
18STRM8ST. REGIS-NEAR ST. REGIS12-05-2022DISCHARGE (KAF)195435
19MILI1SNAKE-AT MILNER12-05-2022DISCHARGE (KAF)485488
20PIHI1PORTNEUF-AT POCATELLO12-05-2022DISCHARGE (KAF)415772
21GIBO3UMATILLA-NEAR GIBBON12-05-2022DISCHARGE (KAF)546091
22TNAW1TEANAWAY-BELOW FORKS12-05-2022DISCHARGE (KAF)476473
23BIGI1BOISE-AT GLENWOOD BRIDGE12-05-2022DISCHARGE (KAF)13466204
24RILW1TIETON-RIMROCK LAKE NEAR RIMROCK12-05-2022INFLOW (KAF)457857
25SATI1ST MARIES-NEAR SANTA12-05-2022DISCHARGE (KAF)278134
26EASW1YAKIMA-AT EASTON12-05-2022DISCHARGE (KAF)488458
27ARAI1SF BOISE-ANDERSON RANCH DAM12-05-2022INFLOW (KAF)819585
28TEAI1TETON-NEAR ST. ANTHONY12-05-2022DISCHARGE (KAF)729973
29IPDI1HENRYS FORK-ISLAND PARK DAM12-05-2022INFLOW (KAF)8010576
30PATW1METHOW-NEAR PATEROS12-05-2022DISCHARGE (KAF)7511267
31CHEI1FALL RIVER-NEAR CHESTER12-05-2022DISCHARGE (KAF)9911388
32CSDI1NF PAYETTE-CASCADE DAM12-05-2022INFLOW (KAF)6811560
33JLKW4SNAKE-JACKSON LAKE AT DAM12-05-2022INFLOW (KAF)7911768
34CLUW1CLE ELUM-CLE ELUM LAKE12-05-2022INFLOW (KAF)5311845
35DRMM8CLARK FORK-NR DRUMMOND12-05-2022DISCHARGE (KAF)11212888
36CLFW1NACHES-NEAR CLIFFDEL12-05-2022DISCHARGE (KAF)5913543
37UMAO3UMATILLA-NEAR UMATILLA12-05-2022DISCHARGE (KAF)12714687
38BONM8BLACKFOOT-NEAR BONNER12-05-2022DISCHARGE (KAF)11414777
39PDTO3UMATILLA-AT PENDLETON12-05-2022DISCHARGE (KAF)13415388
40WGCM8MF FLATHEAD-NEAR WEST GLACIER12-05-2022DISCHARGE (KAF)4216925
41OWYO3OWYHEE-OWYHEE DAM12-05-2022INFLOW (KAF)174171101
42LAUW1KETTLE-AT LAURIER12-05-2022DISCHARGE (KAF)7117840
43FCFM8NF FLATHEAD-NEAR COLUMBIA FALLS12-05-2022DISCHARGE (KAF)11218760
44NACW1NACHES-NEAR NACHES12-05-2022DISCHARGE (KAF)5918831
45PARI1BOISE-NEAR PARMA12-05-2022DISCHARGE (KAF)273199137
46TCHW1WALLA WALLA-NEAR TOUCHET12-05-2022DISCHARGE (KAF)17020682
47CHDW1CHELAN-LAKE CHELAN DAM12-05-2022INFLOW (KAF)6420931
48WSRI1WEISER-NEAR WEISER12-05-2022DISCHARGE (KAF)21021299
49BITM8BITTERROOT-NEAR MISSOULA12-05-2022DISCHARGE (KAF)16821777
50LUCI1BOISE-LUCKY PEAK DAM12-05-2022INFLOW (KAF)20122191
51PRTI1PRIEST-NEAR PRIEST RIVER12-05-2022DISCHARGE (KAF)12825251
52HODO3HOOD-NEAR TUCKER BRIDGE12-05-2022DISCHARGE (KAF)279252111
53MONO3NF JOHN DAY-AT MONUMENT12-05-2022DISCHARGE (KAF)11726544
54HHWM8SF FLATHEAD-HUNGRY HORSE DAM12-05-2022INFLOW (KAF)13026749
55UNDW1WHITE SALMON-NEAR UNDERWOOD12-05-2022DISCHARGE (KAF)24529384
56JKSW4SNAKE-NEAR JACKSON12-05-2022DISCHARGE (KAF)25031679
57TONW1OKANOGAN-NEAR TONASKET12-05-2022DISCHARGE (KAF)19032159
58ABOM8CLARK FORK-ABOVE MISSOULA12-05-2022DISCHARGE (KAF)28434782
59PESW1WENATCHEE-AT PESHASTIN12-05-2022DISCHARGE (KAF)14934743
60UMTW1YAKIMA-AT UMTANUM12-05-2022DISCHARGE (KAF)22635863
61ALPW4SNAKE-NEAR ALPINE12-05-2022DISCHARGE (KAF)28637776
62ANTI1HENRYS FORK-AT ST. ANTHONY12-05-2022DISCHARGE (KAF)30238179
63PITW1KLICKITAT-NEAR PITT12-05-2022DISCHARGE (KAF)33238985
64EMMI1PAYETTE-NEAR EMMETT12-05-2022DISCHARGE (KAF)31239080
65HEII1SNAKE-NEAR HEISE12-05-2022DISCHARGE (KAF)509395129
66SERO3JOHN DAY-AT SERVICE CK12-05-2022DISCHARGE (KAF)19741548
67REXI1HENRYS FORK-AT REXBURG12-05-2022DISCHARGE (KAF)34343778
68TRYO3GRANDE RONDE-TROY12-05-2022DISCHARGE (KAF)28855952
69BELM8CLARK FORK-BELOW MISSOULA12-05-2022DISCHARGE (KAF)44157677
70BFTI1SNAKE-NEAR BLACKFOOT12-05-2022DISCHARGE (KAF)57858699
71PLDI1SF SNAKE-PALISADES DAM12-05-2022INFLOW (KAF)45459177
72PARW1YAKIMA-NEAR PARKER12-05-2022DISCHARGE (KAF)35059259
73SNAI1SNAKE-AT BLACKFOOT12-05-2022DISCHARGE (KAF)57759996
74SIFI1SNAKE-AB EAGLE ROCK NR IDAHO FALLS12-05-2022DISCHARGE (KAF)67468299
75SHYI1SNAKE-NEAR SHELLEY12-05-2022DISCHARGE (KAF)64868595
76SRGM8CLARK FORK-AT ST REGIS12-05-2022DISCHARGE (KAF)54577870
77LYDM8KOOTENAI-LIBBY DAM12-05-2022INFLOW (KAF)61384173
78KIOW1YAKIMA-AT KIONA12-05-2022DISCHARGE (KAF)49285557
79DWRI1NF CLEARWATER-DWORSHAK DAM12-05-2022INFLOW (KAF)57988066
80CFMM8FLATHEAD-AT COLUMBIA FALLS12-05-2022DISCHARGE (KAF)86097888
81ORFI1CLEARWATER-AT OROFINO12-05-2022DISCHARGE (KAF)510110746
82WHBI1SALMON-AT WHITEBIRD12-05-2022DISCHARGE (KAF)853111577
83AFRI1SNAKE-AMERICAN FALLS RESERVOIR12-05-2022INFLOW (KAF)12131211100
84COEI1COEUR D ALENE-COEUR D ALENE LAKE12-05-2022INFLOW (KAF)835132663
85SPOW1SPOKANE-AT SPOKANE12-05-2022DISCHARGE (KAF)756142153
86MODO3DESCHUTES-AT MOODY NR BIGGS12-05-2022DISCHARGE (KAF)936143265
87KERM8FLATHEAD-SELI’Š KSANKA QLISPE’ DAM12-05-2022INFLOW (KAF)955144666
88LLKW1SPOKANE-AT LONGLAKE12-05-2022INFLOW (KAF)1059170262
89SWAI1SNAKE-BELOW SWAN FALLS12-05-2022DISCHARGE (KAF)1760187794
90SPDI1CLEARWATER-AT SPALDING12-05-2022DISCHARGE (KAF)1179207257
91LEOI1KOOTENAI-AT LEONIA12-05-2022DISCHARGE (KAF)1720227576
92WEII1SNAKE-AT WEISER12-05-2022DISCHARGE (KAF)2870302795
93NOXM8CLARK FORK-NOXON RAPIDS DAM12-05-2022INFLOW (KAF)2428314577
94BRNI1SNAKE-BROWNLEE DAM12-05-2022INFLOW (KAF)3108327795
95CABI1CLARK FORK-CABINET GORGE DAM12-05-2022INFLOW (KAF)2685361474
96ALFW1PEND OREILLE-ALBENI FALLS DAM12-05-2022INFLOW (KAF)3022412773
97ANAW1SNAKE-NEAR ANATONE12-05-2022DISCHARGE (KAF)4322581674
98LGDW1SNAKE-LOWER GRANITE DAM12-05-2022INFLOW (KAF)5502805068
99LGSW1SNAKE-LITTLE GOOSE DAM12-05-2022INFLOW (KAF)5502809068
100LMNW1SNAKE-LOWER MONUMENTAL DAM12-05-2022INFLOW (KAF)5972824572
101IHDW1SNAKE-ICE HARBOR DAM12-05-2022INFLOW (KAF)5972827572
102CIBW1COLUMBIA-AT INTL BOUNDARY12-05-2022DISCHARGE (KAF)156441970379
103GCDW1COLUMBIA-GRAND COULEE DAM12-05-2022INFLOW (KAF)168372163478
104CHJW1COLUMBIA-CHIEF JOSEPH DAM12-05-2022INFLOW (KAF)203402386685
105WELW1COLUMBIA-WELLS DAM12-05-2022INFLOW (KAF)206042452484
106RRHW1COLUMBIA-ROCKY REACH DAM12-05-2022INFLOW (KAF)208462492784
107WANW1COLUMBIA-WANAPUM DAM12-05-2022INFLOW (KAF)209952554582
108PRWW1COLUMBIA-PRIEST RAPIDS DAM12-05-2022INFLOW (KAF)209932562182
109MCDW1COLUMBIA-MCNARY DAM12-05-2022INFLOW (KAF)276033499479
110JDAO3COLUMBIA-JOHN DAY DAM12-05-2022INFLOW (KAF)291133672679
111TDAO3COLUMBIA-THE DALLES DAM12-05-2022INFLOW (KAF)292243738478
112BONO3COLUMBIA-BONNEVILLE DAM12-05-2022INFLOW (KAF)300633920177
113BFEI1KOOTENAI-AT BONNERS FERRY12-05-2022STAGE (FT)MMM
114HOPI1PEND OREILLE-PEND OREILLE LAKE NR HOPE12-05-2022LAKE ELEVATION (FT)MMM
115SJMI1ST JOE-AT ST MARIES12-05-2022STAGE (FT)MMM